LEMUR-2-KOBYSZCZE (43732 NORAD) Tracking and Keplerian Element Data

This shows tracking and keplerian element data for the satellite.

Feedback or suggestion? Click here.




ElementValue
Catalog43732
NameLEMUR-2-KOBYSZCZE
Epoch Orbit457
Epoch Day363.19650111
Epoch Year2018
RAAN68.2471
Inclination97.4812
Eccentricity0.0020666
Argument of Perigee217.7258
Mean Anonmoly226.5929
Mean Motion15.26721978
Decay Rate1.916E-05
L11 43732U 18096P 18363.19650111 .00001916 00000-0 75397-4 0 9990
L22 43732 97.4812 68.2471 0020666 217.7258 226.5929 15.26721978 4571

Live tracking and technical data element details for LEMUR-2-KOBYSZCZE (NORAD 43732). LEMUR-2-KOBYSZCZE can be tracked NOW for your location showing map with azimuth and elevation plus other details from your city location.

Track the satellite on the map from your city or location and see movement details for azimuth, elevation, latitude, longitude, range, height, and movement on the map or in text.







IsCatalogInMostPopularTable: catalog: 43732, numindb: 91
Update: records affected: 1



GetName: 43732 LEMUR-2-KOBYSZCZE

Hit Count: updated at: Mon, 27 May 2019 03:07:46 GMT